Albany, NY

11:22 PM EST on November 19, 2019 (GMT -0500)
Albany International

Weather History for KALB - September, 2019

Change the Weather History Date:

Saturday, September 14, 2019

  Actual Average Record
Temperature  
Mean Temperature 64 °F 63 °F  
Max Temperature 69 °F 73 °F 93 °F (1931)
Min Temperature 59 °F 52 °F 32 °F (1963)
Degree Days  
Heating Degree Days 1 4  
Month to date heating degree days 28 35  
Since 1 July heating degree days 30 58  
Cooling Degree Days 0 2  
Month to date cooling degree days 23 37  
Year to date cooling degree days 746 580  
Growing Degree Days 14 (Base 50)    
Moisture  
Dew Point 56 °F    
Average Humidity 74    
Maximum Humidity 87    
Minimum Humidity 60    
Precipitation  
Precipitation 0.02 in 0.11 in 2.62 in (1951)
Month to date precipitation 1.80 1.43  
Year to date precipitation 30.78 27.58  
Sea Level Pressure  
Sea Level Pressure 30.22 in    
Wind  
Wind Speed 12 mph (South)    
Max Wind Speed 22 mph    
Max Gust Speed 30 mph    
Visibility 10 miles    
Events Rain    
T = Trace of Precipitation, MM = Missing Value Source: NWS Daily Summary

Daily Weather History Graph

Daily Weather History Graph

Search for Another Location

Airport or City:

Astronomy

Sep. 14, 2019 Rise Set
Actual Time 6:33 AM EDT 7:07 PM EDT
Civil Twilight 6:05 AM EDT 7:35 PM EDT
Nautical Twilight 5:31 AM EDT 8:09 PM EDT
Astronomical Twilight 4:56 AM EDT 8:43 PM EDT
Moon 7:47 PM EDT (9/14) 6:43 AM EDT (9/14)
Length of Visible Light 13h 30m
Length of Day
12h 33m
Full, 100% of the Moon is Illuminated
Sep 14
Full
Sep 21
Last Quarter
Sep 28
New
Oct 5
First Quarter
Oct 13
Full

Hourly Weather History & Observations

Time (EDT) Temp. Dew Point Humidity Pressure Visibility Wind Dir Wind Speed Gust Speed Precip Events Conditions
12:51 AM 60.1 °F 48.0 °F 64% 30.35 in 10.0 mi South 18.4 mph 27.6 mph N/A   Overcast
1:51 AM 60.1 °F 48.0 °F 64% 30.33 in 10.0 mi SSE 15.0 mph 29.9 mph N/A   Mostly Cloudy
2:51 AM 60.1 °F 46.9 °F 62% 30.32 in 10.0 mi South 10.4 mph 20.7 mph N/A   Overcast
3:51 AM 60.1 °F 48.0 °F 64% 30.30 in 10.0 mi South 15.0 mph - N/A   Overcast
4:51 AM 60.1 °F 48.0 °F 64% 30.29 in 10.0 mi South 15.0 mph 23.0 mph N/A   Overcast
5:51 AM 60.1 °F 48.9 °F 67% 30.29 in 10.0 mi South 15.0 mph 24.2 mph N/A   Overcast
6:51 AM 61.0 °F 50.0 °F 67% 30.28 in 10.0 mi SSE 15.0 mph 25.3 mph N/A   Overcast
7:51 AM 61.0 °F 51.1 °F 70% 30.26 in 10.0 mi South 12.7 mph 20.7 mph N/A   Mostly Cloudy
8:51 AM 63.0 °F 53.1 °F 70% 30.26 in 10.0 mi South 15.0 mph 23.0 mph N/A   Mostly Cloudy
9:51 AM 63.0 °F 54.0 °F 72% 30.25 in 10.0 mi South 16.1 mph 23.0 mph N/A   Overcast
10:51 AM 64.9 °F 55.0 °F 70% 30.23 in 10.0 mi South 15.0 mph 27.6 mph N/A   Overcast
11:51 AM 66.0 °F 55.0 °F 68% 30.22 in 10.0 mi South 13.8 mph 26.5 mph N/A   Overcast
12:51 PM 66.9 °F 55.9 °F 68% 30.20 in 10.0 mi South 13.8 mph 23.0 mph N/A   Overcast
1:51 PM 68.0 °F 57.0 °F 68% 30.18 in 10.0 mi South 12.7 mph 19.6 mph N/A   Overcast
2:51 PM 68.0 °F 57.9 °F 70% 30.17 in 10.0 mi South 11.5 mph 21.9 mph N/A   Overcast
3:51 PM 68.0 °F 57.9 °F 70% 30.16 in 10.0 mi South 12.7 mph - N/A   Overcast
4:51 PM 69.1 °F 59.0 °F 70% 30.14 in 10.0 mi South 15.0 mph 21.9 mph N/A   Mostly Cloudy
5:51 PM 68.0 °F 60.1 °F 76% 30.14 in 10.0 mi South 9.2 mph - N/A   Mostly Cloudy
6:51 PM 66.9 °F 61.0 °F 81% 30.14 in 10.0 mi SSE 9.2 mph - N/A   Overcast
7:51 PM 66.9 °F 61.0 °F 81% 30.14 in 10.0 mi SSE 9.2 mph - N/A   Overcast
8:51 PM 66.0 °F 61.0 °F 84% 30.15 in 10.0 mi South 8.1 mph - N/A   Mostly Cloudy
9:51 PM 64.9 °F 61.0 °F 87% 30.16 in 10.0 mi South 9.2 mph - N/A   Mostly Cloudy
10:51 PM 66.0 °F 62.1 °F 87% 30.16 in 10.0 mi South 5.8 mph - N/A   Mostly Cloudy
11:00 PM 66.0 °F 62.1 °F 87% 30.15 in 10.0 mi Variable 4.6 mph - N/A   Overcast
11:02 PM 66.0 °F 62.1 °F 87% 30.16 in 10.0 mi South 4.6 mph - N/A   Overcast
11:51 PM 64.9 °F 62.1 °F 90% 30.17 in 5.0 mi WSW 5.8 mph - 0.00 in Rain Light Rain